Simultaneous Nadir Overpasses (SNOs) Predictions

Prediction of SNOs between LANDSAT-8 and METOP-B Satellite Orbit:

Table of predicted SNOs for the next 14.0 days since TLE Epoch: 4/22/2016
Index Date (LANDSAT-8) Time (LANDSAT-8) Lat,Lon (LANDSAT-8) SZA (LANDSAT-8 ) Date (METOP-B) Time (METOP-B) Lat,Lon (METOP-B) SZA (METOP-B ) Distance(km) Time Diff (sec)
1 04/23/2016 08:45:07 -81.11, -92.04 109.53 04/23/2016 08:44:20 -81.11, -92.11 109.56 1.10 47
2 04/23/2016 09:34:32 81.15, 76.08 70.54 04/23/2016 09:34:58 81.14, 76.10 70.55 0.38 26
3 04/26/2016 04:19:20 -81.13, -25.38 110.40 04/26/2016 04:18:42 -81.12, -25.45 110.42 1.50 38
4 04/26/2016 05:08:46 81.13, 142.35 69.61 04/26/2016 05:09:21 81.14, 142.36 69.63 0.46 35
5 04/28/2016 23:53:34 -81.12, 40.88 111.30 04/28/2016 23:53:05 -81.12, 40.80 111.32 1.35 29
6
